User: anonymous   Login
Location: Unspecified
(0.0000°N, 0.0000°E)
Time: 20:36:52
(UTC+00:00)
Language:

USA 223 - Orbit

View from above orbital plane
View from above orbital plane
View from above satellite
View from above satellite

Ground track
Ground track

The orbit data is extracted from the following two-line orbital elements,

1 37232U 10063A   21012.76915545 0.00000000  00000-0  00000-0 0    08
2 37232   4.5608 125.6151 0043835 171.6444 188.3508  1.00270000    06
Epoch (UTC): 12 January 2021 18:27:35
Eccentricity: 0.0043835
inclination: 4.5608°
perigee height: 35602 km
apogee height: 35971 km
right ascension of ascending node: 125.6151°
argument of perigee: 171.6444°
revolutions per day: 1.00270000
mean anomaly at epoch: 188.3508°
orbit number at epoch: 0

The dashed part of the orbit path shows where the satellite is in the earth's shadow,  

DLR